Location: Newark
(25.5428°S, 54.5819°W)
Time: 23:14:45
(UTC+00:00)

Envisat - Pass Details

Date: 28 July 2019
Orbit: 764 x 766 km, 98.1° (Epoch: 19 August)

Event Time Altitude Azimuth Distance (km) Brightness Sun altitude
Exits shadow 22:29:14 - 164° (SSE) 2,658 5.5 -17.7°
Reaches altitude 10° 22:30:04 10° 163° (SSE) 2,325 5.2 -17.9°
Maximum altitude 22:35:11 72° 79° (ENE) 813 2.9 -19.0°
Drops below altitude 10° 22:40:15 10° 354° (N) 2,298 5.7 -20.1°
Sets 22:42:32 0° 352° (N) 3,216 6.5 -20.6°
